Home   Weather   Punta Cana   Past weeks

Flag for Dominican Republic Past Weather in Punta Cana, Dominican Republic — Yesterday and Last 2 Weeks

Now
86 °F

Passing clouds.


Feels Like: 95 °F
Forecast: N/A
Wind: 16 mph from East

Location: Punta Cana

Current Time: May 27, 2017 at 5:10:50 pm

Latest Report: May 27, 2017 at 4:00 pm


Visibility: N/A

Pressure: 30.01 "Hg

Humidity: 70%

Dew Point: 75 °F

Location of Punta CanaLocation

Past Weather in Punta Cana — Graph

°F

Punta Cana Temperature Yesterday

Maximum temperature yesterday: 86 °F (at 2:00 pm)
Minimum temperature yesterday: 77 °F (at 2:00 am)
Average temperature yesterday: 81 °F

High & Low Weather Summary for the Past Weeks

 TemperatureHumidityPressure
High88 °F (May 24, 2:00 pm)100% (May 16, 2:00 am)30.09 "Hg (May 16, 2:00 am)
Low75 °F (May 13, 6:00 am)66% (May 19, 1:00 pm)29.92 "Hg (May 12, 4:00 pm)
Average81 °F81%30.01 "Hg
* Reported May 12 4:00 pm — May 27 4:00 pm, Punta Cana. Weather by CustomWeather, © 2017

Note: Actual official high and low records may vary slightly from our data, if they occured in-between our weather recording intervals... More about our weather records

Advertising

Punta Cana Weather History for the Previous 24 Hours

Scroll right to see more
 ConditionsComfort  
Time TempWeatherWind HumidityBarometerVisibility
4:00 pm
Sat, May 27
86 °FPassing clouds.16 mph70%30.01 "HgN/A
3:00 pm86 °FPassing clouds.10 mph66%30.01 "HgN/A
2:00 pm86 °FPassing clouds.9 mph66%30.04 "HgN/A
1:00 pm84 °FPassing clouds.5 mph70%30.04 "HgN/A
12:00 pm84 °FPassing clouds.7 mph70%30.07 "HgN/A
11:00 am84 °FPassing clouds.9 mph74%30.07 "HgN/A
10:00 am84 °FPassing clouds.5 mph70%30.07 "HgN/A
9:00 am82 °FScattered clouds.7 mph74%30.04 "HgN/A
8:00 am82 °FPassing clouds.7 mph79%30.04 "HgN/A
7:00 am81 °FPassing clouds.7 mph79%30.01 "HgN/A
6:00 am79 °FPassing clouds.5 mph84%30.01 "HgN/A
5:00 am79 °FPassing clouds.5 mph89%30.01 "HgN/A
4:00 am77 °FPassing clouds.5 mph94%30.01 "HgN/A
3:00 am77 °FPassing clouds.5 mph94%30.01 "HgN/A
2:00 am79 °FPassing clouds.9 mph84%30.04 "HgN/A
1:00 am79 °FPassing clouds.5 mph84%30.04 "HgN/A
12:00 am81 °FPassing clouds.6 mph74%30.07 "HgN/A
11:00 pm
Fri, May 26
79 °FPassing clouds.8 mph84%30.07 "HgN/A
10:00 pm79 °FPassing clouds.8 mph84%30.07 "HgN/A
9:00 pm81 °FPassing clouds.7 mph84%30.04 "HgN/A
8:00 pm81 °FPassing clouds.7 mph84%30.04 "HgN/A
7:00 pm81 °FPassing clouds.7 mph79%30.04 "HgN/A
6:00 pm82 °FPassing clouds.12 mph74%30.01 "HgN/A
5:00 pm82 °FPassing clouds.12 mph74%30.01 "HgN/A
Weather by CustomWeather, © 2017

See weather overviewHow to use our weather pages